Location: Kernascl�den
(48.0062°N, 3.3198°W)
Time: 11:33:40
(UTC+00:00)

CZ-2C R/B - Pass Details

Date: 21 January 2021
Orbit: 785 x 870 km, 98.2° (Epoch: 06 March)

Event Time Altitude Azimuth Distance (km) Brightness Sun altitude
Exits shadow 20:49:38 29° 273° (W) 1,520 4.4 -38.5°
Drops below altitude 10° 20:53:21 10° 235° (SW) 2,507 5.5 -39.1°
Sets 20:55:58 0° 226° (SW) 3,445 6.2 -39.5°
